Location: Krasnoyarskiy Pitomnik
(51.1333°N, 71.6167°E)
Time: 22:19:06
(UTC+00:00)

deb Explorer IX - Pass Details

Date: 22 April 2024
Orbit: 513 x 891 km, 38.7° (Epoch: 21 May)

Event Time Altitude Azimuth Distance (km) Brightness Sun altitude
Rises 08:36:39 0° 254° (WSW) 3,471 ? 47.6°
Reaches altitude 10° 08:39:40 10° 241° (WSW) 2,562 ? 47.4°
Maximum altitude 08:44:26 24° 190° (S) 1,797 ? 47.0°
Drops below altitude 10° 08:49:13 10° 140° (SE) 2,568 ? 46.5°
Sets 08:52:15 0° 127° (SE) 3,481 ? 46.3°
